Location: Baix
(44.7118°N, 4.7648°E)
Time: 02:05:32
(UTC+00:00)

Cosmos 1825 Rocket - Pass Details

Date: 07 August 2020
Orbit: 603 x 631 km, 82.5° (Epoch: 19 September)

Event Time Altitude Azimuth Distance (km) Brightness Sun altitude
Rises 03:49:06 0° 349° (N) 2,883 7.3 -7.9°
Reaches altitude 10° 03:51:20 10° 348° (NNW) 1,970 6.4 -7.6°
Maximum altitude 03:55:41 76° 265° (W) 630 3.5 -6.9°
Drops below altitude 10° 03:59:58 10° 179° (S) 1,945 5.8 -6.3°
Sets 04:02:10 0° 177° (S) 2,842 6.7 -5.9°
